AirNav   Pilot Hours Calculator
 
 1521 users online  

6M2 Horseshoe Bend Airport
Horseshoe Bend, Arkansas, USA

GOING TO HORSESHOE BEND?


FAA INFORMATION EFFECTIVE 02 JANUARY 2020

Location

FAA Identifier: 6M2
Lat/Long: 36-13-16.9010N 091-45-19.7060W
36-13.281683N 091-45.328433W
36.2213614,-91.7554739
(estimated)
Elevation: 781.8 ft. / 238 m (estimated)
Variation: 00E (2020)
From city: 1 mile NE of HORSESHOE BEND, AR
Time zone: UTC -6 (UTC -5 during Daylight Saving Time)
Zip code: 72512

Airport Operations

Airport use: Open to the public
Activation date: 08/1964
Control tower: no
ARTCC: MEMPHIS CENTER
FSS: JONESBORO FLIGHT SERVICE STATION
NOTAMs facility: JBR (NOTAM-D service available)
Attendance: UNATNDD
Wind indicator: lighted
Segmented circle: yes
Lights: DUSK-DAWN. ACTVT MIRL RY 13/31 - CTAF.
Beacon: white-green (lighted land airport)
Operates sunset to sunrise.

Airport Communications

CTAF/UNICOM: 122.8
  • APCH/DEP SVC PRVDD BY MEMPHIS ARTCC (ZME) ON 120.075/289.4 (WALNUT RIDGE RCAG).

Nearby radio navigation aids

VOR radial/distance  VOR name  Freq  Var
ARGr276/39.4WALNUT RIDGE VORTAC114.5004E

Airport Services

Fuel available: 100LL
SELF SERVE FUEL AVBL 24 HRS WITH CREDIT CARD.
Parking: hangars and tiedowns

Runway Information

Runway 13/31

Dimensions: 4502 x 60 ft. / 1372 x 18 m
Surface: asphalt, in good condition
Weight bearing capacity: 
Single wheel: 4.0
Runway edge lights: medium intensity
RUNWAY 13  RUNWAY 31
Latitude: 36-13.496693N36-13.066657N
Longitude: 091-45.701503W091-44.955412W
Elevation: 781.8 ft.777.4 ft.
Traffic pattern: leftleft
Runway heading: 125305
Displaced threshold: 994 ft.no
Markings: basic, in good conditionnonprecision, in good condition
Visual slope indicator: 2-light PAPI on left (3.00 degrees glide path)
Touchdown point: yes, no lightsyes, no lights
Obstructions: 100 ft. trees, 1200 ft. from runway, 10:1 slope to clear
TERRAIN RISES 681 FT BTN 200-1100 FT FM END OF RY.
30 ft. tree, 400 ft. from runway, 225 ft. right of centerline, 6:1 slope to clear

Airport Ownership and Management from official FAA records

Ownership: Publicly-owned
Owner: CITY OF HORSEHOE BEND
CITY HALL - 704 W COMMERCE
HORSESHOE BEND, AR 72512
Phone 870-670-5113
Manager: DOUGLAS WENDLING
704 W COMMERCE
HORSESHOE BEND, AR 72512
Phone 623-414-6337

Airport Operational Statistics

Aircraft based on the field: 3
Single engine airplanes: 3
    
Aircraft operations: avg 123/week *
55% transient general aviation
39% local general aviation
6% military
* for 12-month period ending 30 June 2017

Additional Remarks

RAPIDLY RISING TERRAIN WITH TREES ON FINAL APCH RY 13.
RECOMMEND TKOF RY 13 DUE TO RAPIDLY RISING TERRAIN NW OF ARPT.
DEER ON & INVOF ARPT.
PAY PHONE AVBL
FOR CD CTC MEMPHIS ARTCC AT 901-368-8453.

Instrument Procedures

NOTE: All procedures below are presented as PDF files. If you need a reader for these files, you should download the free Adobe Reader.

NOT FOR NAVIGATION. Please procure official charts for flight.
FAA instrument procedures published for use from 02 January 2020 at 0901Z to 30 January 2020 at 0900Z.

 
IAPs - Instrument Approach Procedures
RNAV (GPS)-A   download (146KB)
NOTE: Special Take-Off Minimums/Departure Procedures apply   download (210KB)

Other nearby airports with instrument procedures:

KCVK - Sharp County Regional Airport (10 nm E)
42A - Melbourne Municipal Airport - John E Miller Field (10 nm S)
7M2 - Mountain View Airport-Wilcox Memorial Field (27 nm SW)
KBVX - Batesville Regional Airport (30 nm S)
KBPK - Baxter County Airport (36 nm W)
 
Loc | Ops | Rwys | IFR | FBO | Links
Com | Nav | Svcs | Stats | Notes
Area around 6M2 (Horseshoe Bend Airport)
 
Road maps at: MapQuest Bing Google
 
Aerial photo
WARNING: Photo may not be current or correct
Aerial photo of 6M2 (Horseshoe Bend Airport)
Photo courtesy of the Arkansas Department of Aeronautics
Taken in the Spring of 2007

Do you have a better or more recent aerial photo of Horseshoe Bend Airport that you would like to share? If so, please send us your photo.

 
Sectional chart

 
Airport distance calculator
Flying to Horseshoe Bend Airport? Find the distance to fly.

From to 6M2

Sunrise and sunset
Times for 27-Jan-2020
 Local
(UTC-6)
 Zulu
(UTC)
Morning civil twilight06:4512:45
Sunrise07:1313:13
Sunset17:2723:27
Evening civil twilight17:5423:54

Current date and time
Zulu (UTC)  27-Jan-2020 12:58:46
Local (UTC-6)  27-Jan-2020 06:58:46
 
METAR
KBVX 
31nm S 
271156Z AUTO 00000KT 5SM HZ CLR A2999 RMK AO2 SLPNO 60000 70007 53003 FZRANO $
KFLP 
35nm W 
271238Z AUTO 00000KT 3/4SM BR VV002 M01/M01 A3001 RMK AO2 FZRANO
KBPK 
35nm W 
271253Z AUTO 34003KT 7SM CLR 02/02 A2999 RMK AO2 SLP158 I1001 T00170017
KUNO 
40nm N 
271253Z AUTO 25007KT 5SM BR CLR M01/M02 A2999 RMK AO2 SLP161 I1000 T10111022
KARG 
41nm E 
271156Z AUTO 30004KT 9SM CLR 03/02 A2999 RMK AO2 SLP159 70013 T00280022 10067 20022 51010
KM19 
45nm SE 
271156Z AUTO 00000KT 8SM CLR 03/03 A3000 RMK AO2 SLP159 60000 70007 T00280028 10072 20028 53009
TAF
KBPK 
35nm W 
271130Z 2712/2812 00000KT 1SM BR SKC TEMPO 2712/2714 1/2SM FG BKN004 FM271400 25002KT 5SM BR FEW250 FM280700 VRB03KT P6SM SCT030 BKN060
NOTAMs
Click for the latest NOTAMs
NOTAMs are issued by the DoD/FAA and will open in a separate window not controlled by AirNav.

 

 
 

FBO, Fuel Providers, and Aircraft Ground Support

  
 Business Name 
 
 Contact 
 
 Services / Description 
 
Fuel Prices
 
Comments
  
City of Horseshoe Bend 870-670-5113 Airport management, Aviation fuel, Aircraft parking (ramp or tiedown), Hangar leasing / sales, ...

More info about City of Horseshoe Bend
Phillips 66
100LL
SS $4.25 
 Updated 23-Jan-2020
 
   2 read write
SS=Self service
Update Fuel Prices
 

Where to Stay: Hotels, Motels, Resorts, B&Bs, Campgrounds

 The hotels featured here are reported to be very convenient to the Horseshoe Bend Airport. If your hotel/inn/B&B/resort is near the Horseshoe Bend Airport, provides convenient transportation, or is otherwise attractive to pilots, flight crews, and airport users, consider listing it here.
  
 Business Name 
 
 Contact 
 
 Services / Description 
 
Distance
 
Comments
  
 Cedar Glade Resort
870-670-5141
[web site]
[email]

Like us on facebook
Internet access, Restaurant, Lodging, Resort, Other business
 
Wireless Internet Access (WiFi)  
 
More info about Cedar Glade Resort
0.5 miles  
   write
Feature A Hotel
 

Would you like to see your business listed on this page?

 If your business provides an interesting product or service to pilots, flight crews, aircraft, or users of the Horseshoe Bend Airport, you should consider listing it here.  To start the listing process, click on the button below
 
Add a business
 

Other Pages about Horseshoe Bend Airport

Update a link
 
Copyright © AirNav, LLC. All rights reserved. Privacy Policy  Contact